Warrenton, VA

5:15 PM EDT on April 28, 2017 (GMT -0400)
Warrenton

Weather History for KHWY - December, 2013

Change the Weather History Date:

Monday, December 23, 2013

  Actual Average (KHEF) Record (KHEF)
Temperature  
Mean Temperature 52 °F -  
Max Temperature 64 °F 41 °F 64 °F (2015)
Min Temperature 38 °F 22 °F 6 °F (2000)
Degree Days  
Heating Degree Days 14    
Growing Degree Days 2 (Base 50)    
Moisture  
Dew Point 53 °F    
Average Humidity 92    
Maximum Humidity 100    
Minimum Humidity 74    
Precipitation  
Precipitation 0.44 in - - ()
Sea Level Pressure  
Sea Level Pressure 30.05 in    
Wind  
Wind Speed 6 mph (NW)    
Max Wind Speed 17 mph    
Max Gust Speed 25 mph    
Visibility 9 miles    
Events Rain    
Averages and records for this station are not official NWS values.
T = Trace of Precipitation, MM = Missing Value Source: NWS Daily Summary

Daily Weather History Graph

Daily Weather History Graph

Search for Another Location

Airport or City:

Trip Planner

Search our weather history database for the weather conditions in past years. The results will help you decide how hot, cold, wet, or windy it might be!

Date:

Astronomy

Dec. 23, 2013 Rise Set
Actual Time 7:25 AM EST 4:54 PM EST
Civil Twilight 6:56 AM EST 5:24 PM EST
Nautical Twilight 6:22 AM EST 5:57 PM EST
Astronomical Twilight 5:50 AM EST 6:29 PM EST
Moon 10:58 PM EST (12/23) 10:54 AM EST (12/23)
Length of Visible Light 10h 27m
Length of Day
9h 28m
Waning Gibbous, 68% of the Moon is Illuminated
Dec 23
Waning Gibbous
Dec 25
Last Quarter
Jan 1
New
Jan 7
First Quarter
Jan 15
Full

Hourly Weather History & Observations

Time (EST) Temp. Windchill Dew Point Humidity Pressure Visibility Wind Dir Wind Speed Gust Speed Precip Events Conditions
12:15 AM 64.0 °F - 63.5 °F 98% 29.98 in 10.0 mi South 4.6 mph - N/A   Light Drizzle
12:35 AM 63.9 °F - 63.7 °F 99% 29.97 in 10.0 mi South 4.6 mph - N/A   Light Drizzle
12:55 AM 63.9 °F - 63.7 °F 99% 29.97 in 10.0 mi South 4.6 mph - N/A   Light Drizzle
1:15 AM 63.7 °F - 63.7 °F 100% 29.98 in 10.0 mi South 6.9 mph - N/A   Light Drizzle
1:35 AM 63.5 °F - 63.5 °F 100% 29.98 in 10.0 mi SSW 5.8 mph - N/A Rain Light Rain
1:55 AM 63.5 °F - 63.5 °F 100% 29.98 in 10.0 mi SSW 6.9 mph - 0.01 in Rain Rain
2:15 AM 63.5 °F - 63.5 °F 100% 29.97 in 10.0 mi SSW 8.1 mph - N/A Rain Light Rain
2:35 AM 63.5 °F - 63.5 °F 100% 29.97 in 10.0 mi SSW 5.8 mph - N/A Rain Light Rain
2:55 AM 63.5 °F - 63.5 °F 100% 29.97 in 10.0 mi SSW 5.8 mph - 0.01 in Rain Light Rain
3:15 AM 63.5 °F - 63.5 °F 100% 29.97 in 7.0 mi SSW 4.6 mph - 0.01 in Rain Rain
3:35 AM 63.5 °F - 63.5 °F 100% 29.97 in 7.0 mi SSW 5.8 mph - 0.03 in Rain Light Rain
3:55 AM 63.5 °F - 63.5 °F 100% 29.96 in 10.0 mi SSW 4.6 mph - 0.05 in Rain Light Rain
4:15 AM 63.5 °F - 63.5 °F 100% 29.95 in 10.0 mi South 4.6 mph - 0.01 in Rain Light Rain
4:35 AM 63.5 °F - 63.5 °F 100% 29.95 in 10.0 mi South 4.6 mph - 0.01 in Rain Light Rain
4:55 AM 63.7 °F - 63.7 °F 100% 29.94 in 7.0 mi South 3.5 mph - 0.04 in Rain Rain
5:15 AM 63.9 °F - 63.9 °F 100% 29.94 in 7.0 mi Calm Calm - 0.02 in Rain Rain
5:35 AM 63.7 °F - 63.7 °F 100% 29.95 in 7.0 mi South 3.5 mph - 0.04 in Rain Rain
5:55 AM 63.9 °F - 63.9 °F 100% 29.95 in 5.0 mi South 3.5 mph - 0.07 in Rain Rain
6:15 AM 63.9 °F - 63.9 °F 100% 29.96 in 10.0 mi SSW 3.5 mph - 0.01 in Rain Light Rain
6:35 AM 63.7 °F - 63.7 °F 100% 29.95 in 5.0 mi South 4.6 mph - 0.02 in   Light Drizzle
6:55 AM 63.9 °F - 63.9 °F 100% 29.95 in 10.0 mi SSW 4.6 mph - 0.02 in Rain Light Rain
7:15 AM 63.7 °F - 63.7 °F 100% 29.94 in 10.0 mi South 3.5 mph - N/A Rain Light Rain
7:35 AM 63.7 °F - 63.7 °F 100% 29.95 in 10.0 mi SSW 4.6 mph - 0.01 in Rain Light Rain
7:55 AM 63.7 °F - 63.7 °F 100% 29.94 in 7.0 mi South 5.8 mph - 0.03 in Rain Rain
8:15 AM 63.5 °F - 63.5 °F 100% 29.91 in 10.0 mi SSE 6.9 mph - 0.02 in Rain Light Rain
8:35 AM 63.7 °F - 63.7 °F 100% 29.94 in 10.0 mi SW 6.9 mph - 0.02 in Rain Light Rain
8:55 AM 64.0 °F - 64.0 °F 100% 29.91 in 10.0 mi SSE 5.8 mph - 0.04 in Rain Rain
9:15 AM 63.7 °F - 63.7 °F 100% 29.96 in 10.0 mi West 8.1 mph - 0.01 in Rain Rain
9:35 AM 62.4 °F - 62.4 °F 100% 29.98 in 4.0 mi WSW 5.8 mph - 0.02 in Rain Rain
9:55 AM 61.9 °F - 61.9 °F 100% 29.99 in 2.5 mi WNW 5.8 mph - 0.05 in Rain Rain
10:15 AM 61.7 °F - 61.7 °F 100% 29.99 in 7.0 mi Calm Calm - 0.01 in Rain Rain
10:35 AM 61.7 °F - 61.7 °F 100% 29.99 in 10.0 mi Calm Calm - 0.01 in   Drizzle
10:55 AM 61.7 °F - 61.7 °F 100% 29.99 in 7.0 mi Calm Calm - 0.01 in   Drizzle
11:15 AM 61.7 °F - 61.7 °F 100% 30.00 in 5.0 mi Calm Calm - 0.01 in   Heavy Drizzle
11:35 AM 59.4 °F - 59.4 °F 100% 29.99 in 5.0 mi North 6.9 mph - 0.05 in Rain Light Rain
11:55 AM 59.0 °F - 59.0 °F 100% 29.98 in 10.0 mi North 4.6 mph - 0.05 in   Overcast
12:15 PM 58.5 °F - 58.5 °F 100% 29.99 in 10.0 mi North 4.6 mph - N/A   Overcast
12:35 PM 58.1 °F - 58.1 °F 100% 30.00 in 5.0 mi North 4.6 mph - 0.03 in Rain Heavy Rain
12:55 PM 58.1 °F - 58.1 °F 100% 30.01 in 10.0 mi North 5.8 mph - 0.05 in Rain Rain
1:15 PM 57.6 °F - 57.6 °F 100% 30.00 in 10.0 mi North 4.6 mph - N/A   Drizzle
1:35 PM 57.4 °F - 57.4 °F 100% 30.02 in 10.0 mi North 4.6 mph - N/A Rain Rain
1:55 PM 57.4 °F - 57.2 °F 99% 30.02 in 10.0 mi North 6.9 mph - 0.01 in   Drizzle
2:15 PM 55.8 °F - 54.5 °F 96% 30.03 in 7.0 mi North 15.0 mph 25.3 mph N/A Rain Light Rain
2:35 PM 53.8 °F - 52.3 °F 95% 30.04 in 10.0 mi North 10.4 mph - N/A   Light Drizzle
2:55 PM 53.8 °F - 51.3 °F 91% 30.05 in 10.0 mi North 9.2 mph - N/A   Light Drizzle
3:15 PM 53.4 °F - 50.0 °F 88% 30.06 in 10.0 mi North 8.1 mph - N/A Rain Light Rain
3:35 PM 53.1 °F - 49.3 °F 87% 30.07 in 10.0 mi North 8.1 mph - N/A Rain Light Rain
3:55 PM 52.5 °F - 49.3 °F 89% 30.07 in 10.0 mi North 9.2 mph - N/A Rain Light Rain
4:15 PM 52.5 °F - 49.1 °F 88% 30.09 in 10.0 mi North 6.9 mph - N/A   Overcast
4:35 PM 52.3 °F - 48.0 °F 85% 30.09 in 10.0 mi NNW 11.5 mph - N/A   Overcast
4:55 PM 51.6 °F - 45.9 °F 81% 30.11 in 10.0 mi NNW 12.7 mph - N/A   Overcast
5:15 PM 50.0 °F - 43.9 °F 79% 30.13 in 10.0 mi North 16.1 mph 24.2 mph N/A   Overcast
5:35 PM 48.7 °F - 42.3 °F 78% 30.15 in 10.0 mi North 13.8 mph 19.6 mph N/A   Overcast
5:55 PM 48.2 °F - 41.5 °F 78% 30.15 in 10.0 mi North 10.4 mph 17.3 mph N/A   Overcast
6:15 PM 47.5 °F - 40.5 °F 77% 30.15 in 10.0 mi North 10.4 mph 18.4 mph N/A   Overcast
6:35 PM 46.9 °F - 39.9 °F 77% 30.15 in 10.0 mi North 12.7 mph 18.4 mph N/A   Overcast
6:55 PM 46.4 °F 40.7 °F 39.7 °F 78% 30.18 in 10.0 mi NNW 12.7 mph 18.4 mph N/A   Overcast
7:15 PM 45.9 °F 39.1 °F 38.8 °F 76% 30.18 in 10.0 mi NNW 16.1 mph 20.7 mph N/A   Overcast
7:35 PM 44.6 °F 37.2 °F 36.7 °F 74% 30.18 in 10.0 mi NNW 17.3 mph 24.2 mph N/A   Overcast
7:55 PM 43.7 °F 37.3 °F 37.0 °F 77% 30.20 in 10.0 mi NNW 12.7 mph 17.3 mph N/A   Scattered Clouds
8:15 PM 42.8 °F 35.8 °F 35.8 °F 76% 30.19 in 10.0 mi North 13.8 mph 20.7 mph N/A   Clear
8:35 PM 42.3 °F 34.4 °F 34.7 °F 75% 30.20 in 10.0 mi NNW 16.1 mph 23.0 mph N/A   Clear
8:55 PM 41.7 °F 34.4 °F 34.2 °F 75% 30.21 in 10.0 mi NNW 13.8 mph 20.7 mph N/A   Clear
9:15 PM 41.2 °F 35.5 °F 33.8 °F 75% 30.22 in 10.0 mi North 9.2 mph - N/A   Clear
9:35 PM 41.0 °F 34.3 °F 33.4 °F 74% 30.22 in 10.0 mi NNW 11.5 mph 18.4 mph N/A   Clear
9:55 PM 40.6 °F 34.8 °F 33.4 °F 75% 30.22 in 10.0 mi NNW 9.2 mph - N/A   Clear
10:15 PM 40.6 °F 33.8 °F 33.1 °F 74% 30.23 in 10.0 mi NNW 11.5 mph 17.3 mph N/A   Clear
10:35 PM 40.1 °F 34.1 °F 32.9 °F 75% 30.23 in 10.0 mi NNW 9.2 mph - N/A   Clear
10:55 PM 39.4 °F 33.2 °F 32.7 °F 77% 30.24 in 10.0 mi NNW 9.2 mph - N/A   Clear
11:15 PM 39.2 °F 34.2 °F 32.9 °F 78% 30.24 in 10.0 mi NNW 6.9 mph - N/A   Clear
11:35 PM 39.4 °F 33.2 °F 32.2 °F 75% 30.23 in 10.0 mi NNW 9.2 mph - N/A   Clear
11:55 PM 38.8 °F 32.6 °F 32.0 °F 76% 30.22 in 10.0 mi NNW 9.2 mph - N/A   Clear